When you browse on this site, cookies collect data to enhance your experience and personalize the content and advertising you see.
Visit our Privacy Policy to learn more. By continuing to use the site, you agree to this use of cookies and data.
EN

Hourly Weather Fanzeres

Today, 3 August, Monday

Time Temperature Precipitation Wind Pressure Humidity
00:00 +17°C° 0 mm 3 mps 755 mmHg 81%
01:00 +17°C° 0 mm 3 mps 755 mmHg 82%
02:00 +17°C° 0 mm 3 mps 755 mmHg 84%
03:00 +17°C° 0 mm 3 mps 755 mmHg 84%
04:00 +17°C° 0 mm 3 mps 755 mmHg 83%
05:00 +17°C° 0 mm 2 mps 755 mmHg 81%
06:00 +19°C° 0 mm 2 mps 755 mmHg 71%
07:00 +21°C° 0 mm 2 mps 755 mmHg 60%
08:00 +25°C° 0 mm 3 mps 755 mmHg 49%
09:00 +26°C° 0 mm 4 mps 755 mmHg 48%
10:00 +27°C° 0 mm 4 mps 755 mmHg 48%
11:00 +28°C° 0 mm 5 mps 754 mmHg 47%
12:00 +28°C° 0 mm 6 mps 754 mmHg 50%
13:00 +28°C° 0 mm 6 mps 754 mmHg 52%
14:00 +28°C° 0 mm 7 mps 753 mmHg 54%
15:00 +27°C° 0 mm 6 mps 753 mmHg 57%
16:00 +26°C° 0 mm 6 mps 753 mmHg 59%
17:00 +24°C° 0 mm 6 mps 753 mmHg 62%
18:00 +22°C° 0 mm 5 mps 753 mmHg 70%
19:00 +21°C° 0 mm 5 mps 753 mmHg 77%
20:00 +19°C° 0 mm 4 mps 754 mmHg 85%
21:00 +19°C° 0 mm 4 mps 753 mmHg 86%
22:00 +19°C° 0 mm 3 mps 753 mmHg 87%
23:00 +18°C° 0 mm 3 mps 753 mmHg 88%

Tomorrow, 4 August, Tuesday

Time Temperature Precipitation Wind Pressure Humidity
00:00 +18°C° 0 mm 3 mps 753 mmHg 87%
01:00 +18°C° 0 mm 3 mps 753 mmHg 87%
02:00 +18°C° 0 mm 3 mps 753 mmHg 87%
03:00 +18°C° 0 mm 2 mps 753 mmHg 85%
04:00 +18°C° 0 mm 2 mps 753 mmHg 84%
05:00 +18°C° 0 mm 2 mps 752 mmHg 82%
06:00 +21°C° 0 mm 2 mps 752 mmHg 69%
07:00 +25°C° 0 mm 2 mps 753 mmHg 57%
08:00 +27°C° 0 mm 2 mps 753 mmHg 44%
09:00 +29°C° 0 mm 3 mps 752 mmHg 39%
10:00 +31°C° 0 mm 3 mps 752 mmHg 35%
11:00 +34°C° 0 mm 4 mps 752 mmHg 30%
12:00 +34°C° 0 mm 5 mps 751 mmHg 30%
13:00 +34°C° 0 mm 5 mps 751 mmHg 31%
14:00 +34°C° 0 mm 6 mps 751 mmHg 32%
15:00 +33°C° 0 mm 6 mps 750 mmHg 36%
16:00 +32°C° 0 mm 6 mps 750 mmHg 39%
17:00 +30°C° 0 mm 5 mps 750 mmHg 42%
18:00 +27°C° 0 mm 4 mps 750 mmHg 49%
19:00 +25°C° 0 mm 3 mps 750 mmHg 57%
20:00 +23°C° 0 mm 2 mps 751 mmHg 64%
21:00 +23°C° 0 mm 2 mps 751 mmHg 64%
22:00 +21°C° 0 mm 2 mps 750 mmHg 64%
23:00 +21°C° 0 mm 2 mps 750 mmHg 64%

Day after tomorrow, 5 August, Wednesday

Time Temperature Precipitation Wind Pressure Humidity
00:00 +21°C° 0 mm 2 mps 750 mmHg 65%
01:00 +20°C° 0 mm 2 mps 750 mmHg 65%
02:00 +20°C° 0 mm 2 mps 750 mmHg 65%
03:00 +20°C° 0 mm 2 mps 750 mmHg 65%
04:00 +20°C° 0 mm 2 mps 750 mmHg 65%
05:00 +20°C° 0 mm 2 mps 750 mmHg 65%
06:00 +24°C° 0 mm 2 mps 750 mmHg 56%
07:00 +27°C° 0 mm 2 mps 750 mmHg 48%
08:00 +30°C° 0 mm 2 mps 750 mmHg 39%
09:00 +31°C° 0 mm 3 mps 750 mmHg 36%
10:00 +33°C° 0 mm 4 mps 750 mmHg 33%
11:00 +35°C° 0 mm 4 mps 750 mmHg 30%
12:00 +35°C° 0 mm 5 mps 750 mmHg 31%
13:00 +34°C° 0 mm 5 mps 749 mmHg 31%
14:00 +34°C° 0 mm 6 mps 749 mmHg 32%
15:00 +33°C° 0 mm 5 mps 749 mmHg 34%
16:00 +32°C° 0 mm 5 mps 749 mmHg 37%
17:00 +30°C° 0 mm 5 mps 749 mmHg 39%
18:00 +27°C° 0 mm 4 mps 749 mmHg 47%
19:00 +25°C° 0 mm 4 mps 750 mmHg 55%
20:00 +22°C° 0 mm 3 mps 750 mmHg 63%
21:00 +21°C° 0 mm 3 mps 750 mmHg 65%
22:00 +21°C° 0 mm 2 mps 750 mmHg 67%
23:00 +20°C° 0 mm 2 mps 750 mmHg 69%

6 August, Thursday

Time Temperature Precipitation Wind Pressure Humidity
00:00 +20°C° 0 mm 2 mps 750 mmHg 68%
01:00 +20°C° 0 mm 2 mps 750 mmHg 67%
02:00 +21°C° 0 mm 1 mps 750 mmHg 66%
03:00 +21°C° 0 mm 1 mps 750 mmHg 66%
04:00 +21°C° 0 mm 1 mps 750 mmHg 66%
05:00 +21°C° 0 mm 1 mps 750 mmHg 66%
06:00 +24°C° 0 mm 1 mps 750 mmHg 58%
07:00 +26°C° 0 mm 1 mps 751 mmHg 50%
08:00 +29°C° 0 mm 2 mps 751 mmHg 41%
09:00 +31°C° 0 mm 2 mps 751 mmHg 39%
10:00 +33°C° 0 mm 3 mps 751 mmHg 37%
11:00 +34°C° 0 mm 4 mps 751 mmHg 34%
12:00 +34°C° 0 mm 4 mps 751 mmHg 34%
13:00 +34°C° 0 mm 5 mps 750 mmHg 34%
14:00 +34°C° 0 mm 5 mps 750 mmHg 34%
15:00 +33°C° 0 mm 5 mps 750 mmHg 36%
16:00 +32°C° 0 mm 4 mps 750 mmHg 37%
17:00 +30°C° 0 mm 4 mps 750 mmHg 39%
18:00 +28°C° 0 mm 4 mps 751 mmHg 47%
19:00 +26°C° 0 mm 3 mps 751 mmHg 55%
20:00 +22°C° 0 mm 3 mps 751 mmHg 63%
21:00 +23°C° 0 mm 2 mps 752 mmHg 64%
22:00 +21°C° 0 mm 2 mps 752 mmHg 66%
23:00 +21°C° 0 mm 2 mps 752 mmHg 68%

7 August, Friday

Time Temperature Precipitation Wind Pressure Humidity
00:00 +22°C° 0 mm 1 mps 752 mmHg 67%
01:00 +21°C° 0 mm 1 mps 752 mmHg 66%
02:00 +21°C° 0 mm 1 mps 751 mmHg 66%
03:00 +21°C° 0 mm 1 mps 752 mmHg 66%
04:00 +21°C° 0 mm 1 mps 752 mmHg 66%
05:00 +21°C° 0 mm 1 mps 752 mmHg 66%
06:00 +24°C° 0 mm 1 mps 752 mmHg 59%
07:00 +26°C° 0 mm 1 mps 752 mmHg 51%
08:00 +29°C° 0 mm 1 mps 753 mmHg 44%
09:00 +30°C° 0 mm 2 mps 753 mmHg 41%
10:00 +33°C° 0 mm 3 mps 753 mmHg 38%
11:00 +34°C° 0 mm 3 mps 753 mmHg 36%
12:00 +34°C° 0 mm 3 mps 753 mmHg 37%
13:00 +33°C° 0 mm 4 mps 752 mmHg 38%
14:00 +33°C° 0 mm 4 mps 752 mmHg 39%
15:00 +30°C° 0 mm 4 mps 752 mmHg 44%
16:00 +29°C° 0 mm 4 mps 753 mmHg 48%
17:00 +27°C° 0 mm 4 mps 753 mmHg 53%
18:00 +25°C° 0 mm 3 mps 753 mmHg 62%
19:00 +23°C° 0 mm 2 mps 754 mmHg 72%
20:00 +20°C° 0 mm 2 mps 754 mmHg 81%
21:00 +19°C° 0 mm 2 mps 754 mmHg 82%
22:00 +20°C° 0 mm 1 mps 754 mmHg 83%
23:00 +20°C° 0 mm 1 mps 754 mmHg 84%

8 August, Saturday

Time Temperature Precipitation Wind Pressure Humidity
00:00 +19°C° 0 mm 1 mps 754 mmHg 84%
01:00 +19°C° 0 mm 1 mps 754 mmHg 84%
02:00 +19°C° 0 mm 1 mps 753 mmHg 84%
03:00 +19°C° 0 mm 1 mps 754 mmHg 85%
04:00 +19°C° 0 mm 1 mps 754 mmHg 85%
05:00 +19°C° 0 mm 1 mps 754 mmHg 85%
06:00 +21°C° 0 mm 1 mps 754 mmHg 76%
07:00 +23°C° 0 mm 1 mps 754 mmHg 67%
08:00 +26°C° 0 mm 1 mps 754 mmHg 59%
09:00 +27°C° 0 mm 2 mps 754 mmHg 54%
10:00 +29°C° 0 mm 3 mps 754 mmHg 50%
11:00 +30°C° 0 mm 3 mps 754 mmHg 45%
12:00 +30°C° 0 mm 4 mps 754 mmHg 45%
13:00 +30°C° 0 mm 4 mps 753 mmHg 46%
14:00 +30°C° 0 mm 4 mps 753 mmHg 46%
15:00 +29°C° 0 mm 4 mps 753 mmHg 49%
16:00 +28°C° 0 mm 4 mps 753 mmHg 53%
17:00 +27°C° 0 mm 4 mps 753 mmHg 57%
18:00 +25°C° 0 mm 4 mps 753 mmHg 65%
19:00 +22°C° 0 mm 3 mps 753 mmHg 73%
20:00 +20°C° 0 mm 3 mps 754 mmHg 81%
21:00 +20°C° 0 mm 2 mps 754 mmHg 82%
22:00 +19°C° 0 mm 2 mps 754 mmHg 84%
23:00 +19°C° 0 mm 2 mps 754 mmHg 85%
Show more